Wind_Speed
36 36 37 37 38 39 40 41 41 42 43 43 44 45 46 48 48 48 48 48 48 49 50 51 52 53 54 55 56 57 59 60 62 64 65 66 68 68 69 68 68 67 67 66 65 64 63 63 63 64 65 67 68 70 71 72 73 74 75 77 77 77 75 74 72 71 71 70 68 67 67 67 67 67 66 67 68 68 67 66 66 66 65 64 61
37 36 36 36 36 37 38 39 40 41 43 44 46 48 49 50 50 50 50 50 51 52 53 54 55 56 57 58 59 60 62 63 64 65 66 66 66 66 66 65 65 64 63 62 61 61 61 62 64 66 68 70 72 73 74 75 77 78 79 79 79 77 74 72 71 69 69 70 69 68 68 68 68 69 68 69 70 71 71 70 69 69 68 68 67
38 37 36 36 35 36 37 37 39 40 42 44 46 48 49 50 50 51 51 52 52 53 54 55 56 57 58 59 60 61 62 63 64 64 64 64 64 64 63 62 62 61 60 60 60 61 62 64 67 69 72 73 75 76 77 79 80 80 80 79 77 75 73 71 70 69 68 69 70 70 70 70 71 71 70 70 71 71 71 71 71 69 68 68 68
39 38 37 37 37 37 38 38 39 40 41 43 45 47 48 49 50 51 51 52 53 54 55 56 57 58 59 60 61 61 62 63 63 63 62 62 62 61 60 59 59 59 59 60 61 63 65 67 70 73 75 76 77 79 80 81 81 80 78 77 75 74 73 71 70 69 69 70 71 71 71 70 70 70 69 69 69 69 69 69 69 68 67 66 65
39 39 38 39 39 39 40 40 41 42 44 45 47 48 50 51 51 52 53 54 55 56 57 58 59 60 60 61 61 62 62 63 62 61 61 60 59 58 58 58 58 59 61 63 64 66 68 71 74 76 78 79 80 81 82 81 80 78 77 76 75 74 73 72 72 72 71 71 71 71 70 68 67 67 67 66 66 67 68 68 68 67 66 65 65
40 40 39 39 40 41 41 42 44 45 46 48 50 51 52 53 54 55 56 57 58 58 59 60 60 61 61 61 61 61 61 61 60 59 58 57 57 57 58 59 60 62 64 66 68 69 71 74 77 79 80 81 82 83 82 81 79 78 77 76 75 74 74 74 74 74 73 72 71 70 70 68 67 66 67 66 65 65 66 68 70 69 67 65 66
42 42 41 41 42 42 43 44 45 47 48 50 51 52 53 55 56 56 57 58 58 59 59 59 59 59 59 59 59 59 59 58 57 57 56 56 57 58 60 62 64 65 67 68 70 72 75 77 79 81 82 83 84 83 82 81 79 78 77 76 75 75 75 75 75 74 73 71 70 70 70 70 69 68 68 68 67 66 65 66 69 72 70 67 66
44 43 43 44 44 45 45 46 47 48 49 51 52 53 54 55 56 57 57 57 57 57 57 57 58 58 58 58 58 58 57 57 56 56 56 57 59 61 63 65 66 68 69 71 73 75 78 80 81 83 84 85 84 83 82 80 79 78 77 76 76 76 75 74 73 72 71 70 70 71 71 72 71 70 68 67 66 65 63 61 63 67 69 67 65
44 44 45 45 46 46 47 48 48 49 50 51 52 53 54 54 55 55 55 56 56 56 56 57 57 57 57 57 57 57 56 56 57 57 59 60 62 63 65 66 68 70 72 74 76 78 80 81 83 84 85 85 83 82 80 79 78 76 76 76 76 75 74 72 71 70 70 70 70 71 71 71 70 68 66 65 63 62 61 59 58 60 62 64 63
44 44 45 45 46 46 47 49 50 50 51 51 52 52 53 53 53 54 54 55 54 54 55 55 56 56 56 56 56 56 57 58 59 60 61 61 63 65 67 69 71 73 75 76 78 80 82 83 85 85 85 83 82 81 79 78 76 75 75 75 74 73 71 70 69 69 70 70 69 68 68 68 67 65 63 61 60 58 57 56 56 56 57 59 60
44 44 45 45 45 46 47 48 49 49 50 50 50 51 51 51 52 52 52 52 52 52 53 53 54 54 55 55 56 58 59 60 60 61 61 63 66 68 70 72 73 75 76 78 80 82 83 85 85 85 84 82 81 79 78 76 76 76 75 74 72 70 69 68 69 69 69 68 66 64 63 64 64 62 60 58 57 56 54 53 52 53 54 54 56
43 44 44 44 45 45 46 46 47 48 48 48 49 49 49 50 50 50 50 50 50 51 52 53 54 55 56 57 58 59 60 60 61 62 65 67 70 71 72 73 75 76 78 79 82 83 85 86 85 84 83 81 80 78 77 76 76 76 75 74 72 71 69 69 69 68 67 65 63 61 59 59 60 60 58 56 55 54 53 51 50 50 51 50 51
43 44 44 45 45 45 45 46 46 46 46 46 47 48 48 48 48 49 50 50 51 52 54 55 56 57 58 58 59 60 60 61 63 65 68 70 71 72 73 74 75 77 79 81 83 85 85 85 84 83 81 80 78 77 76 77 77 76 75 74 73 72 72 71 69 67 64 61 59 57 55 54 56 56 55 53 53 51 50 50 48 47 47 47 46
42 43 44 44 44 44 45 45 45 44 45 45 46 48 48 49 51 52 52 53 54 55 57 58 58 59 59 60 61 62 62 63 65 67 69 70 71 72 73 75 76 78 80 83 84 85 85 84 83 81 80 78 77 77 77 78 77 76 75 75 74 74 74 72 69 66 63 59 57 55 52 51 51 51 51 50 49 47 45 45 45 45 43 42 42
40 42 42 42 42 41 41 43 44 44 43 44 46 47 50 52 54 55 55 56 57 58 59 60 60 61 62 62 63 63 64 65 67 68 69 70 71 72 74 76 78 80 82 83 84 84 84 83 81 80 78 76 76 77 78 78 77 76 75 76 76 75 73 70 66 63 60 57 55 52 49 47 47 46 46 46 46 44 41 39 40 41 40 39 39
41 40 40 39 40 39 39 42 44 43 43 44 46 48 51 53 55 56 57 58 58 59 60 61 62 62 63 64 64 64 65 66 67 68 69 71 72 74 76 77 79 81 82 83 84 83 82 81 79 77 75 75 76 77 77 77 76 76 76 77 76 74 70 67 63 60 58 55 52 49 46 44 43 43 42 43 43 42 41 38 36 37 36 35 35
40 39 39 40 41 40 39 40 43 44 44 44 45 47 50 53 55 56 57 58 58 59 61 62 63 64 64 64 65 66 66 67 68 69 70 72 74 75 77 78 80 81 83 83 83 82 80 79 76 74 73 75 76 77 77 76 76 76 77 77 74 71 68 65 62 60 57 55 52 49 45 43 42 42 42 42 42 42 41 39 37 35 34 31 30
41 37 38 41 41 39 38 40 41 42 41 42 44 47 51 54 56 56 56 58 60 61 62 63 65 65 65 66 67 67 68 69 70 71 72 73 75 76 77 79 80 82 82 82 81 80 78 76 73 72 73 75 76 76 76 76 76 77 76 74 71 68 65 63 61 59 58 56 53 50 46 44 43 43 42 41 41 40 39 38 35 34 33 31 28
43 40 40 40 37 35 37 39 40 41 43 46 49 52 54 55 57 58 59 60 61 63 65 66 66 66 67 67 68 68 69 70 71 72 73 74 75 76 78 80 81 81 81 80 79 78 75 72 70 71 73 74 74 75 75 75 76 76 74 71 67 64 61 59 57 56 55 53 51 50 47 44 43 43 42 40 38 37 36 35 33 30 29 29 27
44 45 45 44 41 39 40 42 42 44 47 50 52 55 56 56 58 61 63 64 65 66 67 67 67 67 68 68 68 69 69 70 71 72 73 74 76 77 79 80 80 80 80 78 77 74 71 69 70 71 72 72 73 74 74 74 74 73 71 67 64 61 59 56 52 51 50 49 48 47 45 43 41 41 41 39 37 35 33 32 31 29 26 25 25
45 47 47 47 46 45 45 44 45 47 51 54 57 59 60 61 62 65 66 67 67 68 68 67 67 68 68 68 68 69 70 71 72 73 74 75 76 78 78 79 79 78 77 76 74 70 68 68 70 70 70 72 73 73 73 73 72 70 67 63 60 57 55 53 50 47 46 46 46 46 45 43 42 41 41 40 38 35 32 29 28 27 24 21 20
45 46 47 47 47 47 46 46 47 52 57 60 61 62 62 63 64 64 65 66 66 66 66 67 67 68 68 69 69 70 71 72 72 73 74 75 77 77 77 77 77 76 75 73 70 67 67 68 69 69 70 71 73 72 72 72 71 68 64 60 57 54 52 50 48 45 43 43 44 44 44 43 42 42 42 41 39 36 33 28 25 24 22 20 17
45 46 46 47 47 48 48 48 50 54 58 60 60 60 61 61 61 62 62 63 64 65 66 67 68 68 69 70 71 72 72 72 73 73 74 76 76 76 76 75 74 74 72 69 66 65 66 67 67 68 69 70 71 72 71 71 69 65 61 58 55 52 50 49 46 44 42 41 42 43 43 43 42 41 41 40 39 38 35 30 26 22 20 18 16
47 46 47 47 48 49 50 51 53 55 58 59 60 61 62 62 63 63 64 65 66 66 67 68 69 69 70 71 72 72 72 72 73 73 74 75 74 74 73 73 72 71 68 65 64 65 66 66 66 67 68 69 70 70 70 69 66 62 59 56 53 51 48 46 45 43 42 41 41 42 42 42 40 39 39 38 37 35 33 29 26 23 20 16 14
49 49 49 49 49 50 51 53 55 56 58 60 61 63 64 64 65 65 66 66 66 67 68 68 69 70 70 70 71 71 71 72 72 73 73 73 72 71 71 71 70 67 64 62 63 64 64 64 65 66 66 67 68 69 68 67 64 60 56 54 52 49 47 44 43 42 41 41 40 40 41 40 38 37 36 36 35 33 30 26 23 21 18 15 13
48 49 50 51 52 53 54 55 56 57 58 60 61 62 62 63 64 65 65 65 66 67 67 68 68 68 69 69 70 70 71 71 71 71 71 70 69 69 69 69 66 63 61 61 63 63 63 63 64 64 64 65 67 68 68 66 62 58 54 51 49 47 45 43 42 41 40 40 39 38 38 39 37 35 34 35 35 34 31 27 23 20 17 14 12
45 46 48 49 51 53 54 56 57 58 59 60 61 62 62 63 63 64 64 64 65 65 65 66 67 67 68 69 69 69 69 69 69 68 67 67 67 68 67 65 62 60 60 61 62 62 62 62 62 61 61 63 65 67 67 65 61 56 52 50 48 45 43 41 40 39 38 38 38 37 36 36 37 36 35 35 34 33 31 27 23 19 17 13 11
45 45 46 47 49 51 52 54 56 57 58 58 59 60 60 61 61 62 62 63 63 64 64 66 67 67 67 68 68 68 67 67 66 65 65 66 66 66 63 60 58 58 59 60 61 61 61 60 59 58 59 61 63 64 64 63 60 56 52 49 47 45 42 40 39 38 38 38 38 37 36 36 36 36 35 34 32 31 30 27 23 19 17 13 10
46 46 46 47 48 49 51 53 54 56 57 57 58 58 59 60 60 61 62 63 63 64 65 66 66 66 66 66 66 65 64 64 63 63 64 65 64 61 58 57 57 58 59 60 59 59 59 58 57 57 58 60 62 63 63 62 59 56 52 49 47 46 44 42 40 40 39 39 39 39 38 37 36 35 34 33 32 31 29 26 23 19 17 14 10
48 48 49 49 49 49 50 52 53 55 56 57 58 58 59 60 60 61 62 63 64 64 64 64 64 64 64 63 63 62 61 61 62 63 64 62 59 57 55 56 57 58 59 59 58 58 58 57 56 56 57 59 61 62 63 62 59 56 53 50 48 46 45 43 42 41 40 39 39 39 38 37 36 34 33 33 31 30 29 27 23 19 16 14 11
50 50 50 50 51 51 51 51 52 52 53 54 56 57 57 58 59 60 61 61 61 61 61 61 61 61 61 60 60 59 60 61 62 62 60 57 55 54 55 56 57 58 58 58 57 56 56 56 56 56 57 59 61 62 62 62 60 57 54 51 48 46 45 44 43 42 41 40 39 39 38 37 35 33 32 32 30 29 27 26 23 19 16 14 12
51 51 52 52 53 52 51 51 51 51 52 52 53 53 54 55 55 56 57 57 57 58 58 58 58 58 58 58 58 59 60 60 60 58 55 53 53 53 55 56 57 58 58 56 55 55 56 56 56 56 57 58 60 61 62 62 60 58 55 52 49 47 45 44 43 42 41 40 39 38 37 36 34 33 31 30 30 28 27 25 24 21 17 14 12
52 52 53 54 53 51 49 48 47 48 49 50 50 51 52 53 54 54 55 55 56 56 56 56 56 56 56 57 58 59 59 58 55 53 52 52 52 53 55 56 57 58 57 55 54 55 56 57 57 57 57 58 60 61 61 61 61 58 55 53 50 47 45 43 42 41 40 39 38 37 36 35 34 32 30 29 28 28 26 25 23 21 18 15 12
52 52 53 53 51 48 47 45 45 46 47 48 49 51 52 53 53 53 54 54 54 54 54 54 55 56 57 57 58 57 55 53 51 50 51 51 52 54 55 57 58 57 55 54 54 55 57 58 58 58 58 59 60 60 60 61 61 59 56 53 51 48 45 42 41 39 39 38 37 36 35 34 34 33 31 29 27 26 25 24 22 21 19 16 14
51 51 52 53 51 48 47 45 45 47 48 49 50 51 52 52 53 53 53 53 52 53 53 54 55 56 56 56 55 53 50 49 49 49 50 52 53 55 57 57 57 55 53 53 54 56 57 59 59 59 59 60 60 60 60 61 61 60 58 55 52 49 46 43 40 38 37 37 36 35 35 34 33 32 31 30 28 26 25 24 23 21 19 17 15
50 50 52 54 52 49 47 47 47 48 49 49 50 51 52 53 53 53 52 51 51 52 53 53 54 53 52 51 49 48 47 47 48 50 51 53 55 57 57 57 55 53 53 54 55 57 58 59 60 59 60 60 61 61 61 61 61 61 59 56 53 50 48 45 42 39 37 36 35 34 34 34 33 33 31 30 28 26 25 23 22 21 20 18 16
49 49 51 54 52 48 46 48 49 49 50 50 52 53 53 53 52 51 50 50 51 53 53 52 51 49 48 47 46 46 47 48 50 51 53 55 57 58 57 55 54 53 54 55 56 58 59 60 61 60 61 61 61 61 61 62 62 62 60 58 55 52 49 47 44 42 39 36 34 33 33 33 33 33 32 31 29 27 25 23 22 21 19 18 17
49 48 49 50 49 47 47 49 50 50 51 52 53 54 53 52 50 50 50 52 53 53 51 49 48 47 46 46 46 47 48 50 52 53 55 56 57 57 55 54 54 55 56 58 59 60 61 62 62 61 62 62 62 62 62 63 64 63 62 59 56 54 51 48 46 44 42 39 35 33 32 31 32 32 32 32 31 29 26 24 23 22 20 19 18
50 50 49 48 48 48 49 50 51 51 51 52 52 52 51 51 52 53 53 53 53 51 49 48 47 46 46 47 48 49 51 53 54 55 55 56 56 55 54 55 56 58 59 60 61 62 64 64 63 62 62 62 62 62 62 64 65 65 64 61 59 56 53 50 47 45 43 41 38 34 32 30 31 31 31 31 31 30 28 26 24 23 22 20 19
51 52 50 49 48 47 48 49 50 50 50 50 50 51 52 53 55 55 54 53 52 51 50 49 48 48 49 49 51 53 55 55 55 55 55 56 56 55 56 57 59 61 62 63 63 65 66 65 64 63 63 63 63 63 63 64 66 66 66 64 62 59 55 53 49 46 43 42 41 38 34 32 31 30 30 30 30 30 29 28 26 25 23 22 21
54 53 50 48 45 44 46 48 49 48 49 50 52 54 55 55 55 54 54 53 53 52 52 51 51 51 52 53 54 54 54 53 53 54 56 57 57 58 59 61 63 64 65 65 66 67 68 67 66 65 64 64 65 65 65 66 67 67 66 65 63 60 58 55 52 49 45 42 41 40 38 35 33 32 31 31 30 30 29 29 28 27 26 24 23
53 51 48 46 44 43 45 47 48 49 50 52 55 56 56 55 55 54 53 53 53 54 55 55 56 57 56 54 53 52 51 52 54 56 58 59 60 62 63 65 66 67 67 67 68 69 69 69 67 66 66 66 66 67 67 68 68 68 67 66 64 61 58 56 54 52 49 44 41 40 39 38 36 35 34 32 32 31 30 30 29 28 27 26 25
52 50 48 46 46 46 47 49 51 52 53 55 57 58 57 57 57 58 58 59 59 59 58 58 59 59 57 54 52 52 53 55 58 60 62 63 64 66 67 68 69 70 70 69 70 71 71 70 69 68 68 68 69 69 70 70 71 71 69 67 64 61 57 55 54 53 52 49 45 41 39 38 37 37 36 35 34 33 32 32 31 30 29 28 28
51 49 45 42 42 46 49 52 55 56 56 57 59 59 59 60 60 60 61 61 61 59 58 57 58 59 58 57 57 57 59 60 62 64 66 67 68 69 70 71 72 72 72 72 72 73 73 72 70 70 70 71 72 73 73 74 74 73 71 69 66 62 58 55 53 51 51 50 49 46 43 40 39 37 37 37 36 36 35 34 33 33 32 31 30
50 48 43 40 43 47 51 54 57 58 59 59 60 61 61 59 57 56 57 60 61 61 60 60 60 60 60 61 62 63 64 65 67 68 69 70 71 72 73 73 74 74 74 74 74 75 74 73 72 72 72 73 75 76 77 78 77 76 73 70 67 64 60 56 53 51 48 47 48 48 47 46 44 42 40 38 38 37 37 36 36 35 35 34 33
53 52 49 48 49 51 53 56 59 61 62 62 63 64 62 59 56 56 58 61 64 64 63 62 61 61 61 62 64 65 67 69 70 71 72 73 74 75 76 76 76 76 76 76 76 76 75 74 73 73 74 76 77 79 80 81 80 78 75 72 69 66 62 59 56 52 49 46 45 45 45 46 47 46 45 43 42 40 39 38 37 37 37 37 37
54 53 53 52 53 54 57 60 63 65 66 66 67 67 65 62 62 63 64 65 66 67 65 63 62 63 64 65 66 68 69 71 72 74 75 76 77 77 78 78 78 78 78 78 77 76 75 74 74 75 76 78 80 82 83 83 83 80 77 74 71 68 65 61 58 54 51 47 46 45 44 45 45 46 46 46 45 45 43 42 41 40 39 39 39
53 53 54 55 56 58 60 62 63 64 66 68 69 69 68 68 67 68 68 67 67 66 65 64 65 66 67 68 69 71 72 74 75 77 78 78 79 79 80 80 80 80 79 78 77 76 75 75 76 77 79 81 82 84 85 85 84 82 78 76 73 70 67 64 60 56 52 49 47 46 45 45 45 45 45 45 45 45 45 45 45 44 43 43 42
54 55 56 57 59 61 62 63 63 63 65 68 70 71 71 71 70 69 68 67 66 66 66 66 67 68 69 70 72 73 75 76 78 79 80 80 81 81 82 82 82 81 79 78 78 77 77 77 79 80 82 84 85 86 86 85 83 81 78 75 73 71 69 65 62 58 54 50 48 46 46 47 47 47 47 47 46 46 45 46 46 46 46 47 47
53 55 57 60 63 65 66 66 66 67 69 72 73 72 71 71 69 68 67 66 66 67 68 68 69 70 72 73 74 76 77 79 80 81 81 81 82 83 83 83 82 80 79 78 78 78 79 81 82 84 85 86 86 86 85 84 82 80 77 75 72 70 68 65 62 59 55 52 50 48 47 48 48 49 50 51 51 50 49 48 48 48 48 49 50
50 52 55 59 63 65 65 66 67 69 71 72 71 69 68 67 67 67 66 67 67 69 70 71 72 73 74 75 76 78 80 81 81 82 82 83 84 84 83 82 81 79 79 78 79 81 83 85 86 87 87 87 86 85 84 83 81 79 76 73 71 68 65 62 60 58 56 54 52 50 50 50 50 51 52 53 54 54 53 53 53 53 53 53 54
Wind_Direction
259 259 261 262 262 263 264 265 265 266 266 266 267 267 268 269 271 272 273 274 274 274 275 276 277 279 280 282 284 286 288 290 292 294 296 297 298 299 300 301 301 301 301 302 302 302 303 303 304 305 305 305 305 305 305 305 305 305 305 305 305 304 303 302 301 300 299 297 296 294 293 291 290 289 287 285 283 282 280 278 276 275 274 272 268
259 260 261 262 263 264 265 265 266 266 267 267 268 269 269 270 271 271 272 272 273 274 276 278 280 282 284 285 288 290 291 293 294 296 298 299 300 301 301 302 302 303 303 303 303 303 304 305 306 306 306 306 306 306 307 307 307 307 307 306 306 305 304 303 302 301 300 298 297 295 294 292 290 288 286 284 283 281 280 278 276 274 272 271 270
258 259 261 262 263 264 265 265 266 267 267 268 269 269 270 271 271 272 273 273 275 277 279 281 283 285 286 289 290 292 294 296 297 299 300 301 302 303 304 304 304 304 304 304 304 304 305 306 306 307 308 308 308 308 308 309 309 309 308 308 307 306 305 304 303 301 300 298 297 295 294 292 291 289 287 285 283 281 279 278 276 274 271 269 267
257 258 260 261 263 264 265 266 267 268 269 269 270 270 271 272 273 274 276 277 279 281 283 285 287 289 291 293 294 296 297 299 300 301 303 304 305 305 306 306 305 305 305 305 305 305 305 306 307 308 309 309 309 310 310 310 310 310 309 308 308 307 306 305 303 302 300 298 296 295 293 292 290 289 287 286 284 282 280 279 277 275 272 269 266
257 258 260 261 263 264 266 267 268 270 271 272 273 273 274 276 277 279 281 282 284 286 288 290 291 293 294 296 297 298 300 301 303 304 305 306 306 306 306 306 306 306 306 305 305 305 305 306 308 309 309 309 310 311 312 312 312 311 310 310 309 308 306 305 304 302 301 300 298 297 295 294 292 290 288 286 285 283 282 280 278 275 273 271 268
256 258 260 262 264 266 267 269 271 272 273 275 276 278 279 281 283 284 285 287 289 290 292 293 294 295 297 298 299 301 302 303 304 305 306 306 306 306 306 306 306 306 306 305 305 306 307 308 309 309 310 311 312 313 313 313 313 312 311 310 309 308 307 306 305 304 304 302 301 300 298 296 294 292 289 287 285 282 281 280 278 276 273 270 268
258 259 260 262 265 267 269 271 273 275 276 278 280 281 283 285 286 287 289 290 292 293 294 295 296 298 299 300 301 302 303 304 304 305 306 306 306 306 306 306 306 306 306 306 307 308 309 309 310 311 312 313 314 315 315 314 314 313 311 310 309 308 308 307 307 306 306 305 303 301 300 298 296 293 291 289 287 284 281 279 278 277 274 271 268
259 261 262 264 266 268 270 273 275 277 279 280 282 284 285 287 289 290 291 292 293 294 295 296 297 298 299 300 300 301 303 304 305 306 306 306 306 306 306 306 306 306 307 308 309 310 310 311 312 313 314 315 315 316 315 315 314 312 311 310 310 309 309 309 308 307 306 305 304 302 301 299 298 296 294 292 290 288 285 281 278 277 276 274 270
260 262 263 265 267 269 271 273 275 277 279 281 283 285 287 288 290 291 292 293 293 294 294 295 296 297 298 299 300 302 304 305 305 305 305 305 305 306 306 307 307 308 309 310 310 311 312 313 313 314 315 316 316 316 315 314 313 312 311 311 310 310 310 309 308 308 307 306 305 304 303 301 300 299 297 295 293 291 289 286 282 278 276 275 273
261 262 264 266 268 270 271 273 275 277 279 281 283 285 287 289 290 291 291 292 292 293 294 295 296 297 299 300 302 303 304 304 304 305 305 305 305 306 307 308 309 310 311 311 312 312 313 314 314 315 316 316 316 315 314 313 312 311 311 311 311 311 311 310 310 310 309 308 307 306 305 303 302 301 299 298 296 294 291 289 286 282 279 276 274
260 262 264 266 268 269 271 273 275 277 279 281 283 285 286 288 289 290 290 290 291 293 294 295 297 298 299 301 302 303 303 304 304 305 305 305 306 308 309 309 310 311 311 312 312 313 313 314 315 316 316 316 316 315 314 313 312 312 312 312 312 312 312 312 312 312 311 311 310 309 307 305 304 303 302 300 298 296 293 290 288 285 282 280 278
260 261 263 265 267 269 271 273 275 277 279 281 283 284 285 286 287 287 287 288 290 292 293 295 296 298 299 301 302 303 304 305 305 305 306 307 308 309 309 310 311 311 312 312 313 314 314 315 316 316 316 316 316 315 314 314 314 314 314 315 315 315 315 315 315 314 314 313 311 310 309 307 305 304 304 302 300 298 296 293 290 287 284 282 280
263 264 264 266 268 270 272 274 276 277 279 280 282 283 284 285 284 284 285 288 290 292 293 295 296 297 299 301 302 304 305 305 305 306 307 308 308 309 310 310 311 311 312 313 314 314 315 316 317 317 317 317 316 316 315 315 316 316 317 318 318 318 318 318 318 317 316 314 313 312 311 309 306 305 305 303 301 299 297 295 292 289 286 284 281
265 266 266 268 270 272 274 274 275 276 277 279 281 282 283 283 283 284 286 288 289 291 293 294 295 298 300 302 304 305 305 305 305 306 307 308 308 309 309 310 311 312 313 313 314 315 316 317 317 318 318 317 317 317 317 317 318 319 320 320 321 321 321 320 320 319 317 316 315 314 313 310 307 306 305 303 302 300 299 297 295 292 288 285 281
264 267 269 272 273 274 275 276 275 276 278 280 282 282 282 283 283 284 286 287 289 291 292 294 296 299 301 303 304 304 304 305 306 307 307 308 308 309 309 310 311 312 313 314 315 316 317 318 318 318 318 318 318 318 318 319 320 321 322 322 322 322 322 321 320 319 318 317 316 315 314 312 309 308 308 307 306 304 303 301 299 296 293 289 284
263 266 269 272 273 274 276 278 278 278 279 282 283 283 282 283 283 284 286 287 289 291 293 296 299 301 302 303 303 304 304 305 306 306 307 307 308 308 310 311 312 313 314 315 316 317 318 318 319 318 318 319 319 319 319 320 322 323 324 324 324 323 322 322 321 320 319 318 317 317 317 315 313 313 313 313 312 311 309 307 304 299 295 292 288
261 265 267 268 269 271 273 276 279 281 282 283 283 282 281 281 282 284 287 289 290 293 295 298 300 301 302 302 302 303 304 305 305 305 306 306 307 308 309 310 312 313 314 315 316 317 318 319 319 319 319 320 320 320 320 322 324 324 325 325 324 324 324 323 323 322 321 321 321 321 321 321 320 320 321 320 318 317 315 312 309 305 300 296 291
259 260 262 264 267 269 270 273 277 280 280 279 278 277 277 279 281 284 286 288 290 293 295 296 298 299 300 300 301 302 303 304 304 304 305 306 307 308 309 311 312 314 315 316 317 318 319 319 319 320 320 321 320 320 322 324 325 325 325 325 325 325 325 325 324 324 324 324 324 324 326 328 327 326 325 323 321 320 318 314 311 309 305 301 295
257 255 253 255 259 262 264 266 268 270 271 273 273 273 275 278 281 283 284 286 288 290 292 294 296 297 298 299 300 301 302 302 303 304 305 306 306 308 309 311 313 314 315 316 317 318 319 319 319 320 321 321 321 321 323 325 326 326 326 326 326 326 326 326 326 325 324 325 325 326 328 330 330 327 326 325 324 323 321 317 314 311 307 304 300
256 254 252 252 252 251 253 257 260 264 266 268 269 269 271 274 277 280 282 284 286 289 291 293 295 296 297 298 299 300 300 301 302 303 304 305 306 308 310 311 313 314 315 316 318 318 318 319 320 321 321 321 321 322 324 326 326 327 327 327 327 327 326 326 325 324 324 325 326 326 327 329 330 329 328 328 328 327 325 321 317 314 310 305 302
255 255 255 255 254 253 253 254 256 258 260 261 263 266 268 271 275 278 281 284 286 288 291 292 294 295 296 297 297 298 299 300 302 303 303 305 306 308 310 312 313 314 315 317 318 318 318 319 321 321 322 322 322 323 325 327 328 328 328 328 327 327 326 325 326 326 326 327 327 328 329 331 332 332 332 331 331 330 329 327 322 317 314 309 303
256 256 256 256 255 255 254 252 251 253 256 259 262 266 269 273 276 278 281 283 285 287 289 290 291 293 294 295 296 297 298 300 301 302 303 305 306 308 310 312 313 314 316 317 317 317 319 320 322 322 322 322 322 324 326 328 329 329 328 328 328 327 327 327 327 328 329 330 330 330 331 333 335 335 334 333 333 333 332 331 327 321 317 314 308
258 257 258 258 257 256 255 253 252 254 259 262 265 268 271 273 276 278 279 281 282 284 286 287 289 290 292 293 295 296 297 299 300 301 303 305 307 309 310 312 313 314 316 316 317 318 320 321 322 323 323 322 323 325 328 330 331 330 329 329 329 329 329 329 329 330 331 332 332 332 333 335 336 336 335 335 335 335 335 334 331 327 322 317 313
258 258 258 259 258 258 257 256 256 258 261 264 267 268 270 272 274 276 278 279 281 283 285 286 288 290 291 293 294 295 297 298 300 301 303 305 307 309 310 312 313 314 315 316 317 319 321 322 323 323 323 323 325 327 329 331 331 331 330 330 331 331 330 330 331 332 333 334 335 335 334 335 335 336 336 336 335 335 335 335 332 329 326 322 318
259 259 259 260 260 260 260 260 260 261 263 265 267 269 270 272 274 276 277 279 281 283 284 286 288 289 291 293 294 295 296 298 299 301 303 305 307 309 310 312 313 314 314 316 318 320 322 323 323 323 323 324 326 328 330 332 332 332 332 332 332 332 331 331 333 334 335 336 337 336 334 334 335 336 336 335 335 336 337 337 333 330 327 325 323
261 261 262 262 262 263 263 263 263 264 265 267 268 270 271 273 274 276 278 280 281 283 285 287 288 290 292 293 294 295 296 298 300 302 304 306 308 309 311 312 312 313 315 317 319 321 322 323 323 323 324 326 328 330 332 333 333 333 333 332 332 332 332 333 334 336 336 336 337 336 336 335 335 336 338 338 339 339 340 339 337 333 329 327 326
264 265 265 265 265 265 265 265 265 266 267 268 269 270 272 273 275 276 278 280 282 283 285 287 289 290 292 293 294 295 297 298 300 302 304 306 308 309 310 311 312 313 316 318 320 321 322 322 322 324 326 328 330 332 333 334 334 333 333 333 333 333 333 334 335 336 336 336 336 337 338 337 338 339 340 342 341 340 340 340 339 335 330 327 326
266 268 269 269 269 268 267 267 266 267 267 268 269 270 272 273 275 277 278 280 282 284 286 287 289 290 291 292 294 295 297 299 301 303 305 306 308 309 309 310 312 314 317 319 320 320 321 321 322 324 327 330 331 332 333 334 334 334 334 334 334 333 333 334 334 335 336 337 338 339 340 341 342 341 340 341 341 341 341 341 340 336 330 327 324
268 269 271 271 272 271 270 269 268 268 268 269 270 271 272 274 276 277 279 281 283 284 286 287 288 289 291 292 294 296 298 299 301 303 305 306 308 308 309 311 313 315 317 319 320 319 320 321 323 326 329 331 332 332 334 335 335 335 335 335 335 334 334 335 336 338 339 339 339 340 342 343 342 341 340 341 341 342 342 342 342 337 330 326 321
268 269 271 272 273 273 272 271 269 269 269 269 270 272 273 275 276 278 280 281 283 284 285 287 288 289 291 292 294 296 298 300 302 304 305 306 307 308 309 312 314 316 318 318 318 318 320 322 325 328 330 331 332 333 335 336 337 337 336 336 336 336 335 336 337 338 339 339 340 341 342 342 342 341 341 341 341 343 343 342 341 338 330 325 319
268 269 270 272 273 273 273 272 270 269 270 270 271 273 274 276 277 278 280 282 283 284 285 287 288 289 291 293 295 296 298 300 302 303 304 305 306 307 310 312 314 316 317 317 317 318 321 324 327 329 330 332 333 335 336 338 338 338 337 337 337 336 336 335 336 337 338 339 340 340 341 341 341 341 341 340 341 342 341 340 339 338 332 324 316
266 268 269 271 272 272 271 270 270 269 270 272 273 274 275 277 278 280 281 282 284 285 286 287 288 290 292 293 295 297 299 301 302 302 303 304 306 308 311 313 315 315 315 315 317 320 323 326 328 329 330 332 334 335 337 338 339 339 338 337 337 336 335 335 335 336 336 337 339 339 339 339 340 340 340 340 339 340 340 340 339 338 333 324 315
266 268 269 270 270 269 269 270 270 271 271 272 273 274 277 279 280 281 282 283 284 285 286 287 289 290 292 293 295 298 299 300 301 301 302 304 307 310 312 313 313 313 313 315 318 322 326 328 328 329 330 332 334 335 337 338 339 339 339 338 336 335 334 334 333 334 334 335 336 337 338 338 338 339 339 339 339 338 339 339 338 336 332 325 315
267 267 267 268 269 269 269 270 271 271 271 272 274 277 279 280 281 282 283 284 284 285 286 288 289 291 293 295 296 298 299 299 299 301 303 305 308 310 310 311 311 312 313 316 321 325 327 328 328 329 330 331 333 335 336 338 339 339 338 337 336 334 333 332 331 332 332 332 333 335 336 337 338 338 338 338 338 337 336 336 336 334 331 326 317
266 267 267 267 268 269 271 271 271 271 272 274 277 279 280 281 282 283 284 284 285 286 288 290 291 293 294 295 296 297 298 298 299 301 304 306 307 308 309 309 310 312 315 319 323 326 327 328 328 328 329 330 331 333 335 337 338 338 338 337 336 334 332 330 330 330 330 330 331 333 334 335 336 337 337 336 336 335 334 334 334 333 331 327 320
261 263 266 267 267 269 271 271 271 272 274 275 277 279 280 282 282 282 282 283 285 289 291 293 294 294 295 295 296 296 297 297 299 301 304 305 306 307 308 309 311 314 318 322 325 326 327 328 327 327 328 329 330 332 334 336 337 338 337 336 335 334 332 330 328 328 328 328 329 330 332 333 334 334 334 334 334 333 332 332 331 330 330 327 322
259 258 261 265 268 270 271 272 272 274 275 276 277 278 280 281 282 282 283 286 289 293 295 296 295 295 295 295 295 295 296 297 299 301 303 304 305 307 308 310 314 318 321 323 325 326 327 327 327 326 326 327 328 330 333 335 336 336 336 336 335 334 332 330 328 326 326 326 327 328 329 330 331 331 331 331 331 331 330 329 328 327 326 325 322
260 258 260 264 268 270 271 272 273 275 276 278 280 281 282 283 285 286 288 292 295 297 297 296 295 294 294 294 294 294 295 297 299 301 303 304 305 307 310 314 318 320 322 323 324 325 326 326 325 325 325 325 327 329 331 333 334 334 334 335 334 333 332 330 328 325 323 323 324 325 325 326 326 326 327 327 327 327 327 326 326 325 323 321 319
259 260 260 262 265 268 269 271 272 275 277 280 282 283 284 285 287 289 292 295 297 297 296 294 293 292 292 293 293 294 296 298 299 301 303 305 308 311 315 318 320 321 321 322 323 324 324 324 324 323 323 323 325 327 329 331 332 332 333 334 333 332 331 329 327 324 322 320 320 321 321 321 320 321 321 322 323 323 324 324 323 323 321 319 316
257 259 260 262 265 267 268 269 272 275 278 279 281 282 283 285 287 290 293 295 295 294 292 291 290 290 290 292 293 294 296 298 299 301 304 308 312 315 318 320 320 320 320 320 321 322 322 322 321 321 321 322 324 325 327 329 330 331 331 332 332 331 329 328 326 324 321 318 316 316 317 316 315 315 315 317 318 319 319 320 319 319 318 317 316
257 260 263 264 265 266 267 269 273 276 277 278 280 281 282 284 286 289 291 292 291 290 289 289 289 289 289 291 293 295 297 299 300 303 308 311 314 317 319 320 319 318 318 318 319 320 320 320 320 320 320 321 322 324 325 327 328 329 330 331 331 330 328 327 325 322 320 317 314 313 313 313 312 310 310 311 312 313 313 314 314 314 314 314 313
259 262 263 264 266 269 271 273 274 274 274 276 278 279 280 282 285 286 287 288 288 287 288 289 289 290 291 292 294 296 298 302 305 308 311 314 316 317 318 317 317 316 316 316 317 318 318 318 318 318 319 319 321 322 324 325 326 327 328 328 328 327 327 325 323 321 318 315 312 310 309 309 308 307 306 307 307 307 307 308 308 308 308 308 307
258 261 262 263 264 268 271 272 272 271 271 273 275 277 278 280 282 283 284 285 285 285 286 289 291 292 294 295 296 298 302 306 309 311 313 314 315 315 315 314 314 314 314 315 315 316 316 316 316 317 317 318 319 321 322 323 324 325 325 326 325 325 324 323 322 320 317 314 311 308 306 305 304 303 303 303 303 302 302 303 303 303 303 302 302
258 260 261 258 257 259 262 265 266 267 269 270 272 274 276 278 281 284 285 286 287 287 289 291 292 294 296 298 300 303 305 308 310 311 312 312 312 312 312 312 312 312 312 313 314 314 314 314 315 315 316 318 319 320 321 322 322 323 323 323 323 322 321 321 320 318 316 313 310 308 306 303 301 300 299 299 299 299 299 298 298 298 298 298 297
256 255 253 250 249 251 255 258 260 263 265 267 269 271 273 277 280 282 283 284 286 288 290 290 291 292 295 298 301 303 306 307 308 309 309 309 308 309 309 309 310 310 311 311 312 312 312 313 314 315 316 317 318 319 319 320 320 320 321 321 320 320 319 318 318 316 313 310 308 305 304 303 302 300 298 297 296 296 295 295 295 295 295 294 293
256 255 254 251 248 247 248 250 254 257 260 262 264 267 270 273 275 276 278 280 283 286 288 289 289 292 294 296 299 301 303 304 304 305 305 305 305 306 307 308 308 309 309 309 310 310 311 312 313 314 315 316 317 317 317 318 318 318 319 319 318 318 317 317 316 314 312 308 305 302 299 298 298 299 299 298 297 296 295 294 293 292 292 291 291
256 257 257 255 252 250 250 251 253 255 257 259 262 264 267 270 272 274 276 278 281 284 287 288 290 292 294 295 297 299 300 300 301 302 302 302 303 304 305 306 306 307 307 307 308 308 309 310 312 313 314 314 315 315 316 316 316 316 317 317 317 316 316 315 314 312 310 307 304 301 298 295 294 294 295 296 296 296 296 295 294 292 291 290 289
251 253 253 253 253 254 255 256 256 257 258 260 262 265 267 270 273 275 277 278 281 284 286 288 289 291 292 293 295 296 297 298 299 299 300 301 301 302 303 304 304 305 305 305 306 307 308 310 311 312 312 313 313 313 314 314 314 314 315 315 315 315 314 314 312 310 308 306 304 301 298 296 294 294 293 292 292 292 293 293 294 293 292 291 290
246 246 247 248 250 252 255 256 258 258 259 261 264 266 268 271 274 277 279 280 281 283 285 286 288 289 291 292 293 294 295 296 296 297 298 299 299 300 301 302 302 303 303 304 305 307 308 310 310 310 311 311 311 311 312 312 312 312 312 313 313 313 313 312 310 308 306 305 303 301 299 297 296 296 295 294 293 292 291 291 291 291 291 291 290
245 244 243 243 245 248 251 253 256 258 259 262 264 268 270 273 276 278 279 280 280 282 284 286 288 289 290 292 293 293 294 294 295 295 296 297 298 299 300 300 301 301 302 304 306 307 308 309 309 309 309 309 309 309 309 310 310 310 310 311 311 311 310 309 307 306 305 304 302 300 299 297 297 297 296 296 295 295 294 293 293 292 291 290 289
247 248 247 246 247 248 250 252 255 257 260 263 266 269 272 274 276 278 279 280 280 282 284 286 288 289 290 291 292 292 292 292 293 294 295 296 297 297 298 298 299 301 303 305 306 307 307 307 307 307 307 308 308 308 308 308 308 308 309 309 309 308 307 306 304 304 303 302 301 299 298 297 297 296 296 295 295 295 295 295 294 293 292 291 291
Height
10674 10675 10675 10676 10677 10677 10678 10678 10678 10678 10678 10678 10679 10679 10679 10680 10680 10681 10681 10680 10679 10679 10678 10678 10677 10676 10676 10675 10674 10672 10671 10668 10666 10664 10661 10658 10655 10652 10649 10646 10642 10638 10635 10631 10627 10623 10619 10616 10612 10608 10604 10600 10595 10591 10587 10582 10577 10573 10568 10564 10559 10556 10551 10546 10542 10536 10528 10524 10522 10519 10516 10513 10509 10506 10506 10503 10499 10497 10497 10497 10498 10497 10497 10498 10499
10670 10671 10672 10672 10673 10673 10673 10673 10674 10674 10673 10674 10674 10674 10674 10675 10675 10676 10676 10675 10674 10674 10673 10672 10671 10671 10670 10669 10668 10666 10663 10661 10659 10658 10655 10651 10648 10645 10641 10638 10634 10630 10627 10623 10620 10616 10612 10608 10605 10600 10596 10591 10587 10582 10577 10572 10567 10562 10557 10552 10546 10542 10538 10534 10529 10525 10519 10512 10508 10506 10503 10501 10498 10495 10493 10491 10487 10484 10482 10482 10483 10483 10484 10484 10484
10666 10667 10668 10668 10669 10669 10669 10669 10669 10669 10669 10669 10669 10669 10669 10670 10670 10670 10670 10669 10669 10668 10667 10666 10666 10665 10664 10663 10661 10659 10657 10655 10653 10650 10647 10644 10640 10637 10633 10629 10626 10623 10619 10616 10612 10609 10605 10601 10597 10592 10588 10583 10578 10573 10568 10562 10557 10551 10545 10540 10535 10529 10525 10522 10518 10514 10510 10504 10498 10495 10492 10488 10485 10482 10480 10478 10475 10472 10469 10467 10466 10468 10469 10470 10471
10662 10663 10664 10664 10664 10665 10665 10665 10665 10665 10665 10665 10664 10664 10664 10664 10665 10665 10664 10664 10663 10662 10661 10660 10659 10658 10657 10656 10654 10652 10650 10648 10645 10642 10639 10636 10632 10629 10625 10622 10619 10616 10613 10609 10606 10602 10598 10594 10589 10584 10579 10574 10569 10563 10558 10552 10546 10541 10535 10529 10524 10519 10514 10510 10506 10503 10500 10494 10488 10483 10481 10478 10473 10469 10467 10464 10460 10458 10457 10454 10452 10452 10454 10455 10457
10658 10659 10660 10660 10660 10661 10661 10661 10661 10661 10660 10660 10659 10659 10659 10659 10659 10659 10658 10657 10657 10656 10655 10653 10652 10651 10651 10649 10647 10644 10642 10640 10638 10635 10632 10629 10625 10622 10619 10615 10612 10609 10606 10602 10599 10595 10590 10586 10581 10576 10571 10566 10560 10555 10548 10543 10536 10530 10525 10519 10513 10509 10504 10498 10494 10490 10487 10483 10477 10470 10467 10465 10462 10457 10454 10453 10449 10445 10442 10440 10437 10437 10439 10439 10440
10654 10655 10656 10656 10656 10657 10657 10657 10656 10656 10655 10655 10654 10654 10654 10654 10653 10653 10652 10651 10650 10649 10648 10646 10645 10645 10644 10642 10640 10638 10636 10633 10631 10628 10625 10622 10619 10616 10613 10609 10606 10603 10599 10595 10591 10587 10582 10578 10572 10567 10562 10556 10551 10545 10539 10533 10526 10520 10514 10509 10503 10498 10493 10488 10482 10477 10473 10468 10464 10458 10453 10450 10448 10444 10440 10438 10437 10435 10431 10427 10421 10420 10424 10426 10425
10649 10651 10652 10652 10652 10653 10653 10652 10652 10651 10650 10650 10649 10649 10648 10648 10647 10646 10646 10645 10644 10642 10641 10640 10639 10638 10637 10635 10633 10631 10629 10627 10624 10622 10619 10616 10613 10610 10607 10603 10600 10596 10592 10588 10583 10579 10574 10569 10564 10558 10552 10547 10540 10534 10528 10522 10516 10511 10505 10499 10493 10488 10483 10477 10471 10466 10461 10456 10451 10445 10440 10435 10432 10430 10426 10423 10421 10420 10420 10417 10409 10402 10405 10410 10412
10644 10646 10647 10647 10648 10648 10648 10648 10647 10646 10645 10645 10644 10643 10643 10642 10641 10640 10639 10639 10637 10636 10635 10634 10633 10632 10631 10629 10628 10626 10623 10621 10618 10616 10613 10610 10608 10605 10601 10597 10593 10589 10585 10580 10576 10571 10566 10560 10555 10549 10543 10538 10531 10525 10519 10513 10506 10501 10495 10489 10484 10478 10473 10468 10462 10456 10451 10446 10440 10434 10427 10421 10417 10414 10411 10408 10405 10403 10403 10404 10400 10392 10388 10391 10395
10640 10641 10641 10642 10643 10643 10643 10643 10642 10641 10640 10640 10639 10638 10637 10636 10635 10634 10634 10633 10631 10630 10629 10628 10627 10627 10625 10624 10621 10619 10617 10615 10612 10610 10608 10605 10602 10598 10595 10591 10586 10582 10577 10573 10568 10563 10558 10552 10547 10541 10535 10529 10523 10517 10511 10505 10499 10493 10487 10481 10475 10470 10464 10458 10453 10447 10441 10435 10430 10423 10415 10409 10404 10400 10397 10393 10391 10389 10387 10387 10386 10383 10378 10376 10377
10635 10636 10636 10637 10638 10638 10638 10638 10637 10636 10635 10635 10635 10634 10633 10631 10630 10629 10628 10627 10626 10625 10623 10622 10621 10621 10619 10617 10615 10613 10611 10609 10607 10604 10602 10599 10595 10592 10588 10583 10579 10575 10570 10565 10560 10555 10550 10545 10539 10534 10527 10521 10515 10509 10503 10497 10491 10485 10480 10474 10468 10462 10456 10450 10443 10437 10431 10425 10419 10413 10405 10397 10392 10389 10385 10381 10379 10377 10375 10373 10372 10370 10368 10365 10363
10630 10631 10632 10633 10633 10633 10633 10633 10632 10631 10631 10630 10630 10629 10628 10626 10625 10624 10622 10621 10620 10619 10618 10617 10616 10614 10613 10611 10610 10608 10606 10603 10601 10598 10595 10592 10588 10585 10581 10576 10572 10567 10563 10558 10553 10548 10543 10537 10531 10525 10519 10513 10506 10500 10494 10487 10481 10476 10470 10465 10459 10454 10448 10442 10435 10427 10420 10414 10408 10402 10396 10388 10382 10377 10374 10371 10368 10366 10364 10363 10362 10359 10356 10355 10353
10626 10627 10628 10628 10629 10629 10629 10628 10628 10627 10626 10625 10624 10624 10623 10621 10620 10618 10616 10615 10615 10613 10612 10611 10610 10609 10607 10606 10604 10602 10600 10597 10594 10591 10588 10585 10581 10577 10573 10569 10565 10560 10556 10551 10546 10540 10535 10529 10522 10516 10510 10503 10497 10491 10484 10478 10472 10465 10459 10453 10447 10442 10437 10431 10425 10418 10411 10404 10399 10393 10388 10381 10374 10369 10365 10361 10358 10355 10353 10352 10352 10350 10347 10347 10345
10621 10622 10623 10623 10624 10624 10624 10624 10623 10622 10621 10620 10619 10618 10617 10615 10613 10611 10610 10610 10609 10608 10606 10605 10604 10603 10602 10600 10598 10596 10594 10591 10588 10585 10581 10577 10574 10570 10566 10562 10558 10553 10548 10544 10538 10533 10527 10520 10514 10507 10501 10494 10488 10481 10475 10468 10462 10455 10449 10442 10436 10430 10424 10418 10413 10407 10402 10396 10390 10386 10381 10375 10368 10362 10358 10354 10350 10347 10345 10342 10341 10340 10338 10338 10338
10616 10617 10618 10619 10619 10620 10619 10618 10617 10617 10616 10615 10614 10613 10611 10608 10606 10605 10604 10604 10603 10602 10601 10599 10599 10598 10596 10594 10592 10590 10587 10585 10582 10578 10575 10571 10567 10563 10559 10555 10551 10547 10542 10536 10531 10525 10519 10512 10506 10499 10492 10485 10479 10472 10465 10459 10452 10446 10439 10433 10426 10420 10413 10407 10401 10396 10391 10387 10382 10377 10373 10369 10363 10357 10351 10347 10343 10341 10339 10335 10332 10331 10330 10330 10329
10611 10612 10614 10614 10614 10615 10614 10612 10611 10611 10611 10610 10609 10606 10604 10601 10599 10599 10599 10598 10597 10596 10595 10594 10593 10592 10590 10588 10586 10583 10581 10578 10575 10572 10568 10564 10560 10557 10553 10549 10545 10540 10535 10530 10524 10518 10511 10505 10498 10491 10485 10478 10471 10464 10457 10451 10445 10438 10431 10424 10417 10411 10405 10399 10394 10388 10383 10379 10375 10371 10367 10362 10357 10352 10346 10340 10336 10333 10332 10330 10327 10323 10322 10322 10321
10608 10609 10610 10610 10609 10610 10609 10607 10605 10605 10605 10604 10602 10600 10597 10594 10593 10593 10593 10592 10592 10590 10589 10588 10587 10585 10583 10581 10579 10577 10575 10572 10569 10566 10562 10558 10554 10550 10546 10542 10538 10533 10528 10523 10517 10511 10504 10498 10491 10485 10478 10471 10464 10457 10450 10444 10438 10431 10424 10416 10409 10402 10397 10391 10386 10381 10377 10373 10369 10365 10361 10356 10351 10346 10341 10335 10330 10326 10323 10323 10321 10318 10316 10315 10314
10603 10606 10607 10605 10604 10606 10606 10602 10600 10600 10600 10599 10596 10594 10590 10588 10587 10587 10587 10586 10585 10585 10583 10582 10581 10579 10577 10575 10573 10570 10568 10565 10563 10559 10556 10551 10547 10544 10540 10536 10531 10527 10521 10516 10510 10504 10497 10491 10485 10478 10471 10465 10457 10450 10444 10438 10431 10424 10417 10409 10402 10395 10388 10383 10377 10372 10368 10364 10361 10358 10354 10350 10344 10339 10335 10330 10325 10321 10318 10315 10314 10312 10310 10309 10308
10599 10603 10603 10600 10601 10602 10601 10599 10597 10596 10594 10593 10591 10589 10585 10583 10582 10582 10582 10581 10580 10579 10578 10577 10575 10573 10572 10569 10567 10564 10562 10559 10556 10553 10549 10545 10541 10537 10533 10529 10525 10520 10515 10509 10503 10497 10491 10485 10478 10472 10465 10458 10451 10445 10439 10432 10425 10418 10410 10403 10397 10390 10383 10376 10370 10364 10359 10355 10351 10349 10346 10343 10338 10334 10330 10327 10322 10318 10314 10311 10309 10307 10305 10303 10303
10593 10596 10596 10595 10596 10598 10596 10595 10594 10592 10590 10589 10586 10584 10581 10579 10577 10577 10577 10576 10575 10574 10573 10571 10570 10568 10566 10563 10561 10558 10555 10552 10549 10546 10542 10538 10534 10531 10527 10523 10518 10513 10508 10502 10497 10491 10485 10479 10473 10467 10460 10453 10446 10440 10434 10427 10420 10413 10405 10398 10391 10385 10380 10374 10367 10361 10355 10351 10347 10343 10341 10339 10335 10330 10326 10323 10320 10316 10312 10308 10305 10304 10302 10299 10298
10586 10587 10588 10589 10591 10592 10591 10590 10590 10588 10586 10584 10580 10578 10577 10576 10574 10572 10571 10571 10570 10569 10567 10566 10564 10562 10559 10557 10554 10552 10549 10546 10543 10539 10536 10532 10528 10524 10520 10516 10511 10506 10501 10496 10490 10485 10479 10473 10468 10462 10455 10448 10442 10435 10430 10423 10416 10408 10401 10394 10387 10381 10375 10371 10366 10361 10355 10350 10345 10341 10338 10336 10333 10328 10323 10319 10316 10313 10310 10306 10302 10300 10299 10297 10295
10580 10580 10581 10583 10585 10586 10586 10586 10586 10584 10580 10576 10573 10572 10572 10571 10570 10568 10567 10566 10565 10563 10562 10560 10558 10555 10553 10551 10549 10546 10543 10540 10537 10533 10529 10525 10521 10518 10514 10509 10505 10500 10495 10490 10485 10479 10474 10468 10462 10456 10449 10443 10436 10431 10425 10419 10411 10404 10397 10391 10385 10379 10373 10368 10363 10359 10353 10347 10343 10338 10334 10331 10328 10324 10319 10315 10312 10309 10307 10304 10301 10297 10296 10295 10293
10574 10575 10575 10577 10579 10580 10580 10581 10580 10576 10572 10569 10568 10568 10568 10566 10565 10564 10563 10561 10559 10558 10556 10554 10552 10550 10548 10545 10543 10540 10537 10534 10531 10527 10523 10519 10515 10512 10508 10503 10499 10494 10489 10484 10479 10474 10469 10463 10457 10451 10444 10437 10431 10425 10420 10413 10406 10399 10393 10387 10382 10376 10370 10365 10360 10356 10351 10346 10340 10336 10332 10328 10325 10321 10316 10312 10309 10306 10304 10302 10299 10296 10294 10292 10291
10568 10569 10570 10571 10572 10573 10573 10574 10573 10570 10567 10565 10564 10564 10563 10561 10560 10559 10558 10556 10554 10553 10551 10549 10547 10544 10542 10540 10537 10534 10531 10528 10524 10521 10517 10513 10510 10506 10502 10497 10493 10488 10484 10479 10474 10469 10463 10458 10452 10446 10439 10433 10426 10420 10414 10408 10401 10394 10388 10383 10378 10372 10366 10361 10356 10352 10348 10344 10339 10334 10330 10326 10323 10319 10315 10311 10307 10303 10301 10298 10296 10294 10293 10291 10289
10563 10564 10564 10565 10565 10565 10566 10566 10566 10564 10562 10560 10559 10558 10557 10556 10555 10553 10552 10551 10549 10547 10545 10543 10541 10538 10536 10533 10531 10528 10525 10521 10518 10514 10510 10507 10504 10500 10496 10491 10487 10483 10478 10474 10469 10464 10458 10453 10447 10441 10435 10428 10422 10416 10410 10404 10397 10391 10384 10378 10373 10368 10363 10358 10354 10349 10345 10342 10337 10333 10328 10325 10322 10318 10314 10310 10307 10303 10300 10297 10295 10293 10291 10289 10288
10556 10557 10558 10558 10559 10559 10559 10559 10558 10558 10557 10555 10553 10552 10551 10550 10548 10547 10546 10544 10543 10541 10539 10536 10534 10532 10529 10527 10524 10521 10518 10515 10511 10508 10504 10501 10498 10494 10489 10485 10481 10477 10473 10468 10464 10459 10453 10448 10442 10436 10430 10423 10417 10412 10406 10400 10394 10388 10381 10375 10370 10365 10360 10356 10352 10347 10343 10339 10336 10332 10328 10324 10321 10318 10314 10310 10306 10303 10300 10297 10294 10292 10290 10288 10287
10550 10551 10551 10551 10551 10551 10551 10551 10551 10550 10549 10548 10547 10546 10545 10543 10542 10540 10539 10538 10536 10534 10532 10530 10528 10525 10523 10521 10518 10515 10512 10508 10505 10502 10498 10495 10491 10487 10483 10480 10476 10471 10467 10463 10458 10454 10448 10443 10437 10431 10425 10419 10413 10407 10402 10396 10391 10385 10379 10374 10368 10363 10358 10353 10349 10345 10341 10338 10335 10332 10328 10323 10319 10316 10313 10308 10304 10300 10298 10296 10294 10291 10289 10288 10287
10544 10544 10544 10544 10544 10544 10544 10543 10543 10542 10542 10541 10540 10539 10538 10536 10535 10534 10533 10531 10530 10528 10526 10524 10521 10519 10517 10514 10511 10508 10505 10502 10499 10495 10492 10489 10485 10481 10478 10474 10470 10466 10462 10458 10453 10449 10444 10439 10433 10428 10422 10416 10409 10403 10398 10392 10387 10382 10377 10372 10367 10362 10358 10353 10349 10345 10341 10337 10334 10331 10327 10322 10318 10313 10310 10307 10304 10300 10297 10295 10293 10291 10289 10288 10287
10538 10538 10538 10537 10537 10537 10536 10536 10535 10535 10535 10534 10533 10532 10531 10529 10529 10528 10526 10525 10523 10522 10519 10517 10514 10512 10510 10507 10504 10502 10499 10495 10492 10489 10486 10482 10479 10476 10472 10468 10465 10461 10457 10453 10449 10444 10439 10435 10430 10424 10419 10413 10408 10402 10396 10390 10384 10379 10374 10369 10364 10360 10356 10352 10347 10343 10339 10335 10331 10328 10325 10321 10317 10312 10309 10306 10304 10300 10297 10295 10292 10290 10289 10288 10287
10532 10532 10531 10530 10530 10529 10529 10528 10528 10528 10527 10526 10525 10524 10524 10523 10522 10520 10519 10518 10516 10515 10512 10510 10507 10505 10503 10500 10498 10495 10492 10489 10486 10483 10480 10476 10473 10470 10466 10463 10459 10456 10452 10448 10444 10439 10435 10430 10426 10421 10416 10411 10405 10400 10394 10387 10381 10375 10370 10366 10361 10357 10353 10349 10344 10340 10336 10333 10329 10325 10322 10319 10316 10312 10309 10305 10303 10300 10297 10294 10292 10290 10288 10287 10287
10526 10525 10524 10524 10523 10522 10521 10521 10521 10520 10519 10519 10518 10517 10517 10516 10515 10513 10512 10511 10510 10508 10506 10503 10501 10499 10496 10494 10491 10489 10486 10483 10480 10477 10474 10470 10467 10464 10461 10457 10454 10450 10447 10443 10439 10434 10430 10425 10421 10416 10411 10407 10401 10395 10389 10384 10378 10372 10367 10362 10358 10354 10349 10345 10342 10338 10335 10331 10328 10324 10321 10318 10315 10312 10308 10305 10302 10299 10297 10294 10292 10290 10288 10287 10286
10518 10518 10517 10517 10516 10515 10515 10514 10514 10513 10512 10512 10511 10511 10510 10509 10507 10506 10505 10504 10503 10501 10499 10496 10494 10492 10490 10487 10485 10482 10479 10477 10474 10471 10468 10464 10461 10458 10455 10452 10449 10445 10441 10438 10434 10429 10425 10420 10416 10411 10407 10402 10397 10391 10386 10380 10374 10369 10364 10359 10355 10351 10347 10343 10339 10336 10332 10329 10326 10323 10320 10317 10314 10311 10308 10305 10302 10299 10297 10294 10292 10290 10289 10287 10286
10511 10510 10510 10509 10508 10507 10507 10507 10507 10506 10506 10505 10504 10504 10503 10502 10501 10500 10498 10497 10496 10494 10492 10490 10487 10486 10483 10481 10478 10476 10473 10471 10468 10465 10462 10459 10456 10453 10450 10447 10443 10440 10437 10433 10429 10424 10420 10415 10411 10407 10403 10398 10393 10388 10382 10377 10371 10366 10361 10357 10353 10349 10345 10341 10337 10334 10330 10327 10324 10321 10319 10316 10313 10310 10307 10304 10302 10299 10297 10294 10291 10290 10288 10287 10286
10504 10503 10502 10501 10500 10500 10500 10500 10500 10500 10499 10499 10498 10497 10496 10495 10494 10493 10492 10490 10489 10487 10485 10483 10481 10479 10477 10474 10472 10470 10467 10464 10461 10458 10456 10453 10450 10447 10444 10441 10438 10435 10432 10428 10424 10420 10415 10410 10406 10402 10398 10394 10389 10385 10379 10374 10369 10364 10359 10355 10351 10347 10344 10340 10336 10332 10329 10326 10323 10320 10317 10315 10312 10309 10307 10304 10301 10298 10296 10294 10291 10289 10288 10286 10285
10495 10495 10494 10493 10493 10494 10494 10495 10495 10494 10493 10492 10492 10491 10490 10489 10488 10487 10485 10484 10482 10480 10478 10476 10474 10472 10470 10468 10465 10463 10461 10458 10455 10453 10450 10447 10445 10442 10439 10436 10433 10430 10426 10423 10419 10415 10410 10406 10401 10397 10393 10389 10385 10381 10377 10371 10366 10362 10357 10353 10349 10345 10342 10339 10335 10332 10328 10324 10321 10319 10316 10313 10310 10307 10305 10302 10300 10298 10295 10293 10291 10289 10287 10286 10284
10488 10487 10486 10486 10487 10488 10489 10489 10489 10488 10487 10487 10486 10485 10484 10482 10481 10480 10478 10477 10475 10473 10472 10470 10468 10465 10463 10461 10459 10457 10454 10452 10449 10447 10445 10442 10439 10437 10434 10431 10428 10424 10421 10417 10414 10410 10406 10402 10397 10393 10389 10385 10381 10377 10373 10368 10364 10359 10355 10351 10347 10343 10339 10336 10333 10330 10327 10323 10320 10317 10314 10311 10309 10306 10304 10301 10299 10296 10294 10292 10290 10288 10286 10284 10283
10484 10482 10479 10478 10480 10483 10483 10483 10482 10481 10481 10481 10479 10478 10477 10476 10475 10473 10472 10470 10468 10467 10465 10463 10461 10459 10457 10455 10453 10450 10448 10446 10444 10442 10439 10437 10434 10431 10428 10425 10422 10418 10415 10412 10408 10405 10401 10397 10393 10389 10385 10381 10377 10373 10369 10365 10360 10356 10352 10348 10344 10340 10336 10333 10330 10327 10325 10321 10318 10315 10312 10309 10306 10304 10302 10300 10298 10295 10293 10291 10289 10287 10285 10283 10282
10479 10478 10474 10471 10473 10476 10477 10475 10475 10475 10474 10474 10473 10472 10470 10469 10468 10467 10465 10464 10462 10460 10458 10457 10455 10452 10451 10449 10447 10445 10443 10441 10439 10436 10434 10431 10429 10425 10422 10419 10416 10412 10409 10406 10403 10400 10397 10393 10388 10384 10380 10377 10373 10369 10365 10361 10357 10353 10349 10345 10341 10337 10333 10329 10326 10323 10321 10319 10316 10313 10310 10307 10304 10302 10299 10298 10296 10294 10291 10289 10287 10286 10284 10282 10281
10470 10472 10471 10469 10469 10470 10470 10469 10468 10468 10467 10466 10466 10464 10463 10462 10461 10460 10459 10457 10455 10454 10452 10450 10448 10446 10445 10443 10441 10439 10437 10435 10433 10431 10428 10426 10423 10420 10416 10413 10410 10407 10403 10400 10397 10395 10392 10388 10384 10380 10376 10372 10369 10365 10361 10357 10353 10349 10345 10342 10338 10334 10330 10326 10322 10319 10317 10315 10313 10311 10308 10305 10302 10300 10297 10295 10293 10291 10289 10287 10285 10283 10282 10280 10279
10463 10463 10465 10465 10465 10465 10465 10463 10462 10461 10461 10459 10458 10458 10457 10455 10454 10453 10452 10451 10449 10447 10446 10444 10442 10441 10439 10437 10435 10434 10432 10430 10427 10425 10423 10420 10417 10413 10410 10407 10404 10401 10398 10395 10392 10389 10386 10383 10379 10375 10372 10368 10364 10360 10356 10352 10348 10344 10341 10337 10333 10330 10326 10323 10319 10316 10313 10310 10308 10307 10305 10303 10300 10297 10295 10292 10290 10288 10286 10284 10283 10281 10279 10278 10276
10456 10456 10458 10459 10460 10460 10459 10457 10456 10455 10454 10453 10452 10451 10450 10449 10448 10447 10446 10445 10443 10442 10440 10439 10437 10435 10433 10432 10430 10428 10426 10424 10422 10419 10417 10414 10410 10407 10404 10400 10398 10395 10392 10389 10386 10383 10380 10377 10374 10370 10367 10363 10359 10356 10352 10348 10344 10340 10336 10332 10328 10325 10322 10318 10315 10312 10309 10306 10303 10301 10300 10299 10297 10294 10292 10290 10287 10285 10283 10281 10279 10278 10276 10274 10273
10449 10450 10452 10453 10454 10454 10453 10451 10450 10449 10448 10448 10447 10445 10444 10443 10442 10441 10440 10438 10437 10436 10434 10433 10431 10429 10428 10426 10424 10422 10420 10418 10416 10413 10411 10407 10404 10400 10397 10394 10392 10389 10386 10383 10380 10377 10374 10370 10367 10364 10360 10357 10354 10351 10348 10344 10340 10336 10332 10328 10324 10321 10317 10313 10310 10307 10305 10302 10299 10296 10295 10293 10292 10290 10288 10286 10284 10282 10280 10278 10276 10274 10273 10271 10270
10443 10444 10446 10447 10447 10448 10447 10445 10444 10444 10443 10442 10440 10439 10438 10437 10436 10435 10434 10433 10431 10429 10428 10426 10425 10423 10421 10420 10418 10416 10414 10412 10409 10407 10403 10400 10397 10393 10391 10388 10386 10383 10380 10377 10374 10370 10367 10364 10361 10357 10354 10351 10348 10345 10342 10338 10334 10331 10327 10324 10320 10317 10313 10309 10305 10301 10298 10297 10295 10292 10290 10288 10286 10284 10282 10281 10280 10278 10276 10275 10273 10271 10269 10267 10266
10437 10438 10439 10440 10441 10442 10442 10440 10439 10438 10438 10436 10434 10433 10432 10431 10430 10428 10427 10426 10425 10423 10422 10420 10418 10416 10415 10413 10411 10410 10408 10405 10402 10399 10396 10393 10390 10387 10385 10382 10379 10377 10374 10371 10367 10364 10361 10357 10354 10351 10348 10344 10341 10338 10335 10331 10327 10324 10322 10319 10316 10313 10310 10306 10301 10296 10292 10289 10288 10286 10285 10283 10281 10278 10276 10275 10274 10272 10271 10270 10268 10267 10265 10263 10261
10432 10431 10431 10433 10434 10436 10436 10435 10433 10431 10431 10430 10429 10427 10426 10424 10423 10421 10420 10418 10417 10416 10415 10413 10411 10409 10408 10406 10404 10402 10400 10397 10394 10391 10389 10386 10383 10381 10379 10376 10373 10370 10367 10364 10361 10357 10354 10351 10348 10344 10340 10337 10333 10329 10326 10323 10320 10317 10315 10312 10309 10306 10304 10301 10297 10293 10288 10283 10280 10278 10277 10276 10275 10273 10271 10269 10268 10266 10265 10264 10262 10261 10260 10258 10257
10425 10424 10424 10426 10427 10428 10429 10429 10426 10425 10425 10424 10422 10420 10420 10418 10417 10415 10413 10411 10410 10409 10408 10407 10405 10403 10401 10399 10396 10394 10392 10389 10387 10384 10382 10380 10377 10375 10372 10369 10366 10364 10361 10357 10354 10350 10347 10344 10340 10337 10333 10329 10325 10321 10318 10315 10312 10309 10307 10305 10301 10299 10296 10293 10290 10287 10284 10279 10275 10271 10269 10268 10266 10265 10264 10263 10262 10260 10259 10257 10256 10255 10253 10252 10251
10416 10417 10418 10419 10419 10420 10422 10421 10419 10417 10417 10416 10414 10413 10413 10412 10411 10409 10407 10405 10404 10402 10402 10400 10398 10396 10394 10392 10390 10388 10386 10383 10381 10378 10376 10373 10371 10368 10365 10362 10360 10356 10353 10350 10347 10343 10340 10337 10333 10330 10325 10321 10317 10313 10309 10306 10303 10300 10298 10296 10293 10290 10287 10285 10282 10280 10277 10274 10270 10266 10263 10261 10258 10257 10256 10255 10254 10253 10252 10251 10249 10248 10247 10245 10244
10409 10410 10411 10412 10412 10412 10413 10412 10411 10409 10409 10408 10407 10406 10406 10405 10404 10403 10401 10400 10398 10396 10394 10393 10391 10389 10387 10385 10384 10382 10379 10377 10375 10372 10369 10367 10364 10361 10358 10356 10353 10349 10346 10343 10339 10336 10333 10330 10327 10323 10318 10314 10310 10305 10301 10297 10293 10290 10288 10286 10283 10280 10278 10276 10273 10271 10268 10266 10263 10260 10257 10254 10252 10250 10249 10247 10246 10244 10243 10242 10241 10240 10239 10238 10237
10403 10404 10404 10404 10404 10404 10404 10403 10403 10403 10402 10401 10400 10400 10399 10398 10397 10396 10395 10393 10392 10390 10388 10386 10384 10382 10381 10379 10377 10376 10373 10371 10368 10365 10363 10360 10357 10354 10351 10348 10345 10342 10339 10335 10332 10329 10326 10323 10319 10315 10311 10307 10302 10298 10293 10289 10285 10281 10279 10276 10273 10270 10268 10266 10263 10261 10259 10257 10254 10252 10249 10246 10244 10243 10241 10240 10239 10237 10235 10234 10233 10232 10230 10229 10228
10397 10398 10398 10398 10398 10397 10397 10397 10397 10397 10395 10394 10393 10393 10392 10391 10391 10390 10388 10387 10385 10384 10382 10380 10378 10376 10374 10373 10371 10369 10366 10364 10361 10358 10355 10352 10349 10346 10343 10340 10337 10334 10330 10327 10323 10320 10317 10314 10310 10306 10302 10298 10294 10289 10285 10281 10277 10274 10271 10268 10264 10261 10258 10255 10253 10251 10250 10248 10246 10244 10241 10238 10236 10234 10232 10231 10230 10229 10228 10226 10225 10223 10222 10220 10218
10390 10391 10391 10391 10391 10390 10391 10391 10391 10390 10389 10387 10386 10386 10386 10385 10384 10383 10381 10380 10379 10377 10375 10373 10372 10370 10368 10366 10364 10362 10359 10356 10353 10350 10347 10343 10340 10337 10334 10331 10328 10325 10322 10319 10316 10312 10308 10304 10300 10296 10292 10288 10284 10280 10276 10272 10268 10265 10262 10259 10256 10252 10249 10246 10243 10241 10240 10238 10237 10235 10233 10230 10228 10226 10223 10220 10219 10219 10218 10217 10216 10214 10213 10211 10208
10383 10383 10384 10384 10383 10384 10384 10385 10384 10383 10382 10381 10380 10380 10380 10379 10377 10376 10374 10373 10372 10370 10368 10366 10364 10363 10361 10359 10357 10354 10351 10347 10344 10341 10338 10334 10331 10328 10325 10322 10319 10316 10313 10310 10306 10302 10298 10294 10290 10286 10282 10278 10274 10270 10266 10262 10258 10255 10252 10249 10246 10243 10240 10237 10234 10232 10230 10229 10227 10226 10224 10222 10220 10218 10215 10212 10210 10209 10208 10207 10206 10204 10202 10200 10198